Date,TemperatureHighF,TemperatureAvgF,TemperatureLowF,DewpointHighF,DewpointAvgF,DewpointLowF,HumidityHigh,HumidityAvg,HumidityLow,PressureMaxIn,PressureMinIn,WindSpeedMaxMPH,WindSpeedAvgMPH,GustSpeedMaxMPH,PrecipitationSumIn
2013-1-1,44,44,43,18,16,15,35,33,31,30.09,30.04,4,1,4,0.00
2013-2-28,40,39,38,27,26,25,63,61,58,29.85,29.69,10,2,10,0.00
2013-3-5,50,40,33,38,34,26,99,83,41,29.89,29.65,13,3,13,0.38
2013-3-6,33,33,33,33,33,33,99,99,99,29.66,29.66,2,2,2,0.00
2013-3-9,56,46,40,30,30,28,68,53,35,30.33,30.28,2,1,2,0.00
2013-3-10,67,50,32,37,32,28,86,54,30,30.34,30.19,8,2,9,0.00
2013-3-11,60,52,43,54,35,25,95,54,36,30.22,29.90,8,2,8,0.00
2013-3-12,61,53,41,56,44,30,99,73,45,30.03,29.75,14,2,14,0.17
2013-3-13,51,42,33,32,25,14,76,52,34,30.19,29.99,21,3,21,0.00
2013-3-14,52,40,29,20,14,11,51,37,22,30.28,30.14,14,4,14,0.00
2013-3-15,66,50,31,38,26,13,58,41,33,30.19,29.88,11,3,11,0.00
2013-3-16,78,59,43,60,46,34,99,65,37,29.89,29.62,16,2,16,0.00
2013-3-17,57,44,36,52,44,36,99,96,83,30.23,29.88,11,3,11,0.56
2013-3-18,37,34,33,36,34,32,99,99,99,30.25,29.92,11,4,11,0.20
2013-3-19,58,41,34,43,36,30,99,86,37,29.94,29.82,18,2,18,0.00
2013-3-20,57,45,31,24,13,1,50,28,16,30.10,29.81,8,2,8,0.00
2013-3-21,41,34,27,27,12,6,59,41,26,30.01,29.81,12,4,12,0.00
2013-3-22,51,37,23,18,11,7,52,36,19,30.09,29.95,14,2,14,0.00
2013-3-23,59,43,29,28,22,15,64,45,24,30.08,29.92,9,2,9,0.00
2013-3-24,41,36,32,34,29,21,99,80,45,29.99,29.62,7,1,8,0.00
2013-3-25,47,37,31,38,30,25,99,79,53,29.81,29.56,13,2,13,0.63
2013-3-26,50,42,36,31,27,25,66,56,44,30.14,29.80,12,3,12,0.00
2013-3-27,49,41,34,28,25,23,73,53,39,30.25,30.14,12,3,12,0.00
2013-3-28,59,45,38,28,24,19,63,44,29,30.30,30.22,12,3,12,0.00
2013-3-29,62,46,32,34,26,23,73,48,24,30.34,30.19,10,2,10,0.00
2013-3-30,66,50,34,40,30,26,74,48,28,30.28,30.08,10,2,10,0.00
2013-3-31,62,51,44,55,44,4,99,79,10,30.10,29.80,7,1,7,0.05
2013-4-1,65,53,43,48,41,27,90,65,41,30.05,29.86,22,3,22,0.00
2013-4-2,56,46,34,27,19,10,65,37,17,30.19,30.05,13,2,13,0.00
2013-4-3,58,46,36,21,15,9,43,29,15,30.36,30.19,10,2,13,0.00
2013-4-4,45,38,33,35,22,12,99,58,31,30.42,30.04,10,2,11,0.00
2013-4-5,65,49,35,47,37,31,99,68,32,30.07,29.93,8,2,10,0.17
2013-4-6,62,51,35,38,32,25,85,52,31,30.29,30.07,13,3,15,0.00
2013-4-7,74,58,42,48,40,26,77,51,34,30.26,30.06,9,3,11,0.00
2013-4-8,83,66,49,55,49,44,84,57,32,30.17,30.01,12,2,15,0.00
2013-4-9,91,73,55,59,54,50,85,55,30,30.19,29.94,13,3,15,0.04
2013-4-10,95,78,60,63,57,50,85,52,23,30.02,29.82,13,4,17,0.00
2013-4-11,88,75,62,63,58,54,82,58,34,29.88,29.67,17,4,19,0.00
2013-4-12,81,68,60,70,56,36,99,70,27,29.75,29.59,24,6,27,0.44
2013-4-13,77,63,53,41,34,28,52,35,21,29.95,29.76,20,8,27,0.00
2013-4-14,82,66,42,47,38,28,79,39,24,30.04,28.63,15,4,15,0.00
2013-4-15,68,58,53,56,54,46,99,86,45,30.19,29.99,15,3,17,0.21
2013-4-16,80,66,56,66,60,56,99,83,58,30.24,30.09,11,3,13,0.01
2013-4-17,86,70,60,67,63,60,99,79,49,30.17,30.06,7,2,9,0.00
2013-4-18,81,70,60,68,62,57,99,79,50,30.11,29.91,15,4,17,0.00
2013-4-19,72,66,51,69,62,38,99,87,60,29.91,29.60,24,6,24,0.26
2013-4-20,66,52,43,40,30,24,65,43,25,30.25,29.83,19,7,24,0.00
2013-4-21,62,50,35,37,31,26,82,49,35,30.45,30.24,10,4,12,0.00
2013-4-22,65,52,34,37,31,23,94,49,21,30.43,30.22,14,4,14,0.00
2013-4-23,73,58,47,51,44,36,78,59,42,30.26,30.02,11,3,13,0.00
2013-4-24,86,63,45,64,53,45,99,73,41,30.06,29.82,15,3,18,0.04
2013-4-25,74,57,42,47,31,19,72,42,16,30.25,30.01,18,5,18,0.00
2013-4-26,73,57,38,41,35,27,85,46,25,30.38,26.60,9,2,9,0.00
2013-4-27,72,59,48,52,46,41,87,64,41,30.30,30.19,8,2,8,0.00
2013-4-28,57,54,52,56,53,51,99,96,81,30.19,30.00,11,3,11,0.25
2013-4-29,77,60,51,63,56,51,99,89,60,30.05,29.92,5,1,5,0.02
2013-4-30,77,62,56,63,59,56,99,89,61,30.17,29.99,11,2,11,0.00
2013-5-1,78,62,56,60,54,43,99,78,40,30.31,30.16,15,4,16,0.01
2013-5-2,77,63,55,55,47,40,74,56,39,30.31,30.19,12,3,15,0.00
2013-5-3,69,58,47,53,48,40,98,71,51,30.27,30.14,15,4,17,0.00
2013-5-4,69,56,48,50,45,41,81,69,45,30.19,30.06,14,5,18,0.00
2013-5-5,59,54,47,53,44,31,99,69,45,30.10,26.95,14,5,18,0.05
2013-5-6,60,56,54,59,55,52,99,98,88,30.00,28.52,23,8,23,0.98
2013-5-7,65,56,51,60,55,50,99,97,73,29.89,26.82,12,2,12,0.41
2013-5-8,68,55,50,60,54,50,99,95,73,29.96,26.91,7,1,7,0.30
2013-5-9,85,66,45,64,54,45,99,72,37,30.01,26.91,15,3,15,0.00
2013-5-10,86,69,53,66,60,53,99,77,46,30.02,26.90,24,2,24,0.22
2013-5-11,83,71,60,68,64,60,99,81,55,29.90,29.72,9,3,11,0.04
2013-5-17,86,71,61,72,64,59,99,80,45,30.10,29.95,7,2,7,0.28
2013-5-18,72,66,63,69,65,63,99,97,86,30.14,30.06,8,2,8,0.30
2013-5-19,74,66,63,73,66,63,99,99,99,30.10,30.00,5,2,5,0.22
2013-5-20,84,71,65,76,69,65,99,95,65,30.07,29.97,6,1,6,0.22
2013-5-21,95,78,65,74,70,65,99,80,42,30.00,29.86,8,2,8,0.00
2013-5-22,88,73,61,76,68,61,99,86,63,29.94,29.84,11,2,11,0.20
2013-5-23,88,74,63,74,68,62,99,83,51,29.89,29.73,11,2,17,0.12
2013-5-24,65,60,55,63,53,40,99,77,45,30.07,29.78,1,0,1,0.00
2013-5-25,72,59,43,39,34,28,72,42,22,30.20,30.11,0,0,0,0.00
2013-5-26,80,69,49,49,43,38,87,43,25,30.20,30.10,12,3,13,0.00
2013-5-27,80,68,46,62,56,42,90,67,37,30.24,30.08,7,2,8,0.00
2013-5-28,93,74,55,71,63,54,99,73,40,30.17,30.04,9,2,13,0.00
2013-5-29,96,79,61,72,66,60,99,69,33,30.15,30.07,8,2,11,0.00
2013-5-30,91,77,60,73,66,60,99,73,44,30.20,30.10,12,2,13,0.00
2013-5-31,92,77,60,73,67,60,99,74,48,30.16,30.02,12,2,16,0.00
2013-6-1,89,75,61,75,69,61,99,83,60,30.06,29.92,9,1,11,0.00
2013-6-2,86,72,65,77,70,65,99,94,66,29.96,29.85,9,2,11,0.54
2013-6-3,89,74,64,75,68,63,99,83,52,29.95,29.82,11,1,13,0.00
2013-6-4,84,70,56,68,62,56,99,79,46,30.08,29.94,0,0,0,0.00
2013-6-5,78,69,61,69,65,60,99,88,65,30.11,29.99,9,1,10,0.00
2013-6-6,68,64,61,68,64,61,99,99,99,30.00,29.79,0,0,0,1.38
2013-6-7,78,69,63,76,69,63,99,98,86,29.80,29.59,6,0,8,0.20
2013-6-8,92,72,60,71,65,60,99,81,45,30.07,29.78,8,2,11,0.07
2013-6-9,89,76,64,76,70,63,99,84,58,30.12,30.00,11,2,12,0.21
2013-6-10,86,73,66,79,71,66,99,96,71,30.04,29.80,13,2,15,0.26
2013-6-11,87,74,64,72,67,63,99,80,55,29.91,29.83,19,4,20,0.05
2013-6-12,96,81,65,80,73,64,99,79,55,29.93,29.81,4,0,5,0.00
2013-6-13,93,80,71,78,74,68,99,86,57,29.83,29.56,1,0,1,0.05
2013-6-14,82,72,63,62,59,55,94,65,48,30.01,29.74,0,0,0,0.00
2013-6-15,89,73,55,66,61,55,99,72,41,30.09,29.98,0,0,0,0.00
2013-6-16,90,75,59,72,67,58,99,79,54,30.03,29.93,0,0,0,0.06
2013-6-17,90,77,67,77,71,67,99,84,59,29.99,29.87,0,0,0,0.05
2013-6-18,79,72,63,75,70,63,99,94,75,29.93,29.79,0,0,0,0.35
2013-6-19,84,70,59,72,66,59,99,89,65,30.11,29.88,0,0,0,0.51
2013-6-20,81,73,66,73,69,65,99,89,68,30.21,30.11,7,1,8,0.00
2013-6-21,88,76,61,72,67,60,99,76,57,30.25,30.16,6,1,8,0.00
2013-6-22,92,75,58,74,67,58,99,78,50,30.23,30.09,0,0,0,0.00
2013-6-23,95,80,67,77,72,67,99,78,41,30.17,30.06,0,0,0,0.00
2013-6-24,93,78,68,78,73,67,99,86,54,30.15,30.02,0,0,1,0.12
2013-6-25,95,80,66,80,73,66,99,81,54,30.08,29.94,0,0,1,0.01
2013-6-26,94,79,67,80,73,67,99,85,59,29.97,29.86,0,0,1,0.30
2013-6-28,93,81,69,77,71,63,99,74,44,29.70,29.51,0,0,0,0.00
2013-6-29,89,76,65,73,70,64,99,83,55,29.68,29.56,0,0,0,0.28
2013-7-3,80,75,71,80,75,71,99,99,97,30.19,30.15,5,1,5,0.79
2013-7-4,91,79,70,82,76,70,99,91,69,30.22,30.14,13,1,16,0.99
2013-7-5,92,80,71,80,76,71,99,88,66,30.21,30.11,10,3,12,0.04
2013-7-6,92,79,69,80,74,69,99,87,59,30.20,30.07,12,3,14,0.01
2013-7-7,90,76,70,83,74,69,99,94,71,30.13,30.04,10,0,13,0.41
2013-7-8,94,78,66,80,73,66,99,85,54,30.14,30.05,0,0,0,0.00
2013-7-9,96,80,69,80,74,69,99,84,50,30.11,28.72,0,0,0,0.00
2013-7-10,96,77,70,82,74,70,99,93,60,28.76,28.62,0,0,1,1.02
2013-7-11,91,77,69,80,74,69,99,92,64,28.65,28.56,0,0,1,0.34
2013-7-12,80,72,68,73,69,67,99,93,73,28.75,28.58,0,0,1,0.01
2013-7-13,84,73,67,78,72,67,99,95,78,28.88,28.73,0,0,0,0.19
2013-7-14,90,79,72,79,75,72,99,89,63,30.29,28.88,0,0,1,0.01
2013-7-15,97,82,70,81,75,70,99,81,48,30.31,30.21,0,0,0,0.00
2013-7-16,100,83,69,81,75,68,99,78,50,30.27,30.16,5,0,11,0.15
2013-7-22,95,80,72,80,76,72,99,88,54,29.93,29.77,0,0,0,0.07
2013-7-23,94,81,71,77,73,71,99,80,54,29.79,29.70,0,0,0,0.00
2013-7-24,92,80,70,76,71,69,99,78,47,29.87,29.72,0,0,0,0.00
2013-7-25,87,75,67,71,67,63,99,76,54,30.02,29.87,0,0,0,0.00
2013-7-26,86,74,62,73,69,62,99,85,65,30.07,29.97,0,0,0,0.00
2013-7-27,75,71,68,75,70,68,99,98,92,30.01,29.90,7,1,7,0.37
2013-7-28,91,82,68,76,73,67,99,75,57,29.95,29.87,5,2,9,0.01
2013-8-5,82,73,61,69,65,60,99,79,55,30.08,29.97,0,0,0,0.00
2013-8-6,89,75,67,77,71,67,99,89,67,30.00,29.93,0,0,0,0.52
2013-8-7,81,74,70,78,74,70,99,98,89,30.04,29.98,0,0,0,0.15
2013-8-8,86,75,71,81,74,71,99,97,82,30.01,29.96,0,0,0,0.28
2013-8-9,93,80,70,82,77,70,99,90,67,29.99,29.91,1,0,1,0.00
2013-8-10,94,82,71,79,76,70,99,85,59,30.05,29.97,0,0,0,0.00
2013-8-11,94,80,71,80,75,71,99,87,59,30.08,29.98,14,2,19,0.45
2013-8-12,97,80,69,80,74,68,99,84,47,30.03,29.91,9,1,10,0.02
2013-8-13,88,76,70,80,73,69,99,92,73,29.93,29.76,0,0,0,0.37
2013-8-14,83,72,62,71,60,53,99,68,44,30.10,29.84,0,0,1,0.00
2013-8-15,82,66,53,62,57,52,99,76,46,30.15,30.04,0,0,1,0.00
2013-8-16,82,66,52,66,59,52,99,83,55,30.16,30.07,0,0,0,0.00
2013-8-17,75,64,56,68,61,56,99,92,65,30.20,30.13,0,0,0,0.18
2013-8-18,74,66,62,74,66,61,99,99,93,30.19,30.11,7,1,8,0.32
2013-8-19,81,70,64,77,69,64,99,97,83,30.17,30.04,0,0,0,0.05
2013-8-20,91,75,66,78,72,65,99,91,62,30.16,30.07,8,0,12,0.00
2013-8-21,89,76,68,81,74,67,99,93,71,30.18,30.06,0,0,0,0.14
2013-8-22,91,77,63,78,72,63,99,85,60,30.11,29.97,0,0,1,0.01
2013-8-23,90,74,64,78,71,63,99,92,62,30.10,29.92,0,0,0,0.01
2013-8-24,86,70,60,70,64,59,99,84,53,30.28,30.10,2,0,2,0.01
2013-8-26,89,72,56,72,65,56,99,81,49,30.29,30.05,0,0,0,0.00
2013-8-27,89,77,63,77,71,63,99,85,63,30.06,29.92,0,0,0,0.00
2013-8-28,88,76,70,83,75,70,99,96,74,29.97,29.82,0,0,0,0.11
2013-8-29,93,79,70,81,75,70,99,90,63,30.00,29.82,0,0,0,0.08
2013-8-30,91,77,68,78,73,68,99,90,62,30.02,29.89,0,0,0,0.00
2013-8-31,95,76,67,80,73,66,99,92,58,29.92,29.82,0,0,0,0.25
2013-9-1,93,80,64,80,75,64,99,87,59,29.86,29.75,9,1,9,0.04
2013-9-2,94,78,66,79,73,65,99,85,55,29.85,29.75,1,0,2,0.00
2013-9-3,92,78,65,79,70,62,99,80,50,29.96,29.77,0,0,1,0.00
2013-9-4,90,72,56,71,64,56,99,81,45,30.07,29.95,0,0,0,0.00
2013-9-5,91,72,56,69,64,56,99,78,42,30.11,30.01,0,0,1,0.00
2013-9-6,85,68,59,66,62,59,99,81,49,30.18,30.07,0,0,1,0.00
2013-9-7,85,69,54,72,64,53,99,86,59,30.11,29.92,0,0,1,0.00
2013-9-8,92,74,60,76,68,60,99,85,57,29.97,29.87,0,0,0,0.00
2013-9-9,84,72,65,75,70,64,99,94,73,30.14,29.97,0,0,0,0.00
2013-9-10,96,78,65,81,74,65,99,88,60,30.18,30.09,0,0,1,0.00
2013-9-11,96,79,67,81,74,67,99,86,53,30.16,30.01,0,0,0,0.00
2013-9-12,96,80,68,80,72,67,99,80,50,30.03,29.78,0,0,1,0.00
2013-9-13,82,72,60,70,59,50,99,67,39,29.93,29.74,0,0,1,0.00
2013-9-14,81,62,47,58,53,47,99,76,43,30.10,29.91,14,2,14,0.02
2013-9-15,83,64,47,66,58,47,99,82,53,30.19,30.04,6,0,8,0.00
2013-9-16,76,66,56,69,62,55,99,87,65,30.19,30.05,0,0,0,0.00
2013-9-17,73,60,49,61,55,49,99,85,56,30.32,30.18,0,0,0,0.00
2013-9-18,74,59,46,62,55,46,99,88,64,30.27,30.12,0,0,1,0.00
2013-9-19,78,67,61,70,65,60,99,93,73,30.14,30.02,0,0,1,0.00
2013-9-20,73,66,63,72,66,62,99,99,99,30.04,29.91,0,0,0,0.51
2013-9-21,69,65,59,69,65,58,99,99,99,29.92,29.66,0,0,1,0.37
2013-9-22,81,64,51,68,58,51,99,82,52,29.90,29.72,0,0,1,0.01
2013-9-23,78,61,52,63,56,51,99,85,58,30.03,29.89,0,0,1,0.00
2013-9-24,80,64,55,67,60,55,99,87,59,30.06,29.88,0,0,1,0.00
2013-9-25,72,63,54,66,61,54,99,95,83,29.92,29.83,0,0,0,0.05
2013-9-26,83,69,60,70,62,59,99,82,47,29.96,29.86,0,0,0,0.01
2013-10-7,72,66,52,71,61,50,99,86,62,30.03,29.75,1,0,1,1.36
2013-10-8,72,59,49,55,50,48,99,77,51,30.21,30.02,0,0,0,0.00
2013-10-9,71,57,48,54,50,47,99,81,50,30.23,30.13,2,0,2,0.00
2013-10-10,70,59,51,64,57,48,99,93,77,30.13,29.94,0,0,0,0.20
2013-10-11,79,65,59,67,62,58,99,90,63,29.95,29.87,0,0,0,0.00
2013-10-12,71,64,60,68,63,60,99,98,90,30.08,29.94,0,0,0,0.06
2013-10-13,69,65,60,67,64,60,99,96,90,30.21,30.07,0,0,0,0.01
2013-10-14,76,62,59,67,61,58,99,96,68,30.25,28.84,0,0,0,0.20
2013-10-15,79,61,51,63,57,51,99,89,55,30.19,30.03,1,0,3,0.00
2013-10-16,74,62,50,65,58,50,99,89,64,30.05,29.89,6,1,7,0.00
2013-10-17,71,63,59,70,62,55,99,97,84,29.91,29.73,6,0,7,0.04
2013-10-18,75,58,46,55,49,45,99,73,43,29.99,29.86,0,0,1,0.00
2013-10-19,64,55,47,60,52,44,99,92,64,29.94,29.75,0,0,1,0.00
2013-10-20,73,54,41,45,41,36,99,65,35,30.05,29.87,0,0,1,0.00
2013-10-21,74,52,35,55,46,35,99,82,49,30.10,29.91,9,1,13,0.00
2013-10-22,70,56,47,57,50,47,99,84,56,29.91,29.75,13,2,17,0.00
2013-10-23,62,50,44,52,44,31,99,81,49,29.92,29.64,25,5,29,0.02
2013-10-24,51,43,33,36,33,31,99,70,50,30.11,29.92,15,3,19,0.00
2013-10-25,53,40,30,35,31,27,99,75,40,30.28,30.11,17,4,20,0.00
2013-10-26,65,44,24,39,30,24,99,66,25,30.28,29.93,15,2,20,0.00
2013-10-27,75,55,40,46,40,36,96,61,33,30.05,29.94,20,2,25,0.00
2013-10-28,73,52,38,57,48,37,99,87,52,30.20,30.05,6,1,9,0.00
2013-10-29,74,61,52,60,56,52,99,83,58,30.29,30.17,6,1,8,0.00
2013-10-30,79,62,54,66,59,53,99,91,64,30.23,30.07,8,1,11,0.08
2013-10-31,73,64,56,66,61,56,99,91,71,30.11,29.73,9,2,14,0.00
2013-11-1,82,70,54,67,61,48,99,77,35,29.73,29.57,14,4,17,0.06
2013-11-2,71,58,47,51,44,34,99,61,35,29.84,29.64,23,5,26,0.00
2013-11-3,63,51,37,39,36,33,90,59,39,30.32,29.91,13,5,13,0.00
2013-11-4,53,42,29,39,32,29,99,70,42,30.50,30.32,5,1,5,0.00
2013-11-5,53,45,33,45,37,29,93,73,49,30.52,30.37,4,1,4,0.00
2013-11-6,71,56,47,56,51,46,99,83,59,30.38,30.04,8,2,8,0.00
2013-11-7,62,48,43,59,36,28,99,67,50,30.08,29.89,15,5,19,0.02
2013-11-8,54,43,30,31,28,24,94,56,35,30.25,30.07,21,5,24,0.00
2013-11-9,62,42,26,38,30,26,99,67,33,30.28,28.84,11,2,11,0.00
2013-11-10,70,55,44,40,32,25,57,42,22,30.21,29.98,24,8,27,0.00
2013-11-11,65,48,30,33,29,26,89,51,28,30.27,30.01,11,2,13,0.00
2013-11-12,54,48,41,40,30,24,67,50,35,30.17,28.87,17,5,21,0.00
2013-11-13,48,36,28,22,16,11,69,45,25,30.44,30.35,14,6,14,0.00
2013-11-14,66,41,23,26,20,18,81,50,18,30.35,30.19,12,2,12,0.00
2013-11-15,68,46,28,53,34,24,99,71,24,30.23,30.09,11,2,11,0.28
2013-11-16,59,54,47,57,53,47,99,98,90,30.22,30.14,5,1,6,0.06
2013-11-17,62,57,53,61,57,53,99,99,99,30.15,29.73,14,5,15,0.07
2013-11-18,70,60,49,61,41,28,99,51,29,29.95,29.70,23,8,28,0.06
2013-11-19,57,45,39,30,27,26,61,50,35,30.26,29.93,22,6,24,0.00
2013-11-20,52,41,32,29,26,24,76,56,36,30.41,30.24,10,3,11,0.00
2013-11-21,52,45,39,44,38,28,87,76,62,30.44,30.31,5,1,5,0.00
2013-11-22,71,58,47,61,53,44,99,84,63,30.33,30.00,10,1,11,0.00
2013-11-23,60,48,32,54,33,13,83,59,30,30.17,30.01,29,9,34,0.00
2013-11-24,34,27,22,16,4,0,52,37,24,30.44,30.17,25,10,29,0.00
2013-11-25,41,28,17,15,10,4,73,48,31,30.44,30.25,8,2,9,0.00
2013-11-26,43,35,31,42,33,14,99,93,42,30.26,29.55,11,1,14,1.02
2013-11-27,44,35,26,44,28,12,99,77,54,30.07,29.51,24,9,30,0.04
2013-11-28,47,32,23,24,18,12,96,59,34,30.35,30.06,18,4,23,0.00
2013-11-29,52,34,22,28,24,21,99,72,38,30.57,30.34,10,2,12,0.00
2013-11-30,44,30,20,31,24,20,99,78,49,30.57,30.27,7,1,8,0.00
2013-12-1,63,38,20,35,27,19,99,73,31,30.27,29.94,8,1,10,0.00
2013-12-2,56,43,31,41,36,31,99,81,55,29.94,29.76,5,0,5,0.00
2013-12-3,63,47,35,48,42,34,99,85,52,29.90,29.78,6,1,7,0.00
2013-12-4,66,53,42,58,51,42,99,94,69,30.00,29.88,10,2,11,0.00
2013-12-5,71,59,48,66,58,48,99,98,85,30.02,29.89,7,1,11,0.01
2013-12-6,74,64,47,74,63,46,99,97,85,30.01,29.80,19,2,24,0.76
2013-12-7,48,43,39,47,38,33,99,84,66,30.39,29.99,12,4,14,0.06
2013-12-8,39,32,29,35,30,28,99,94,76,30.39,30.17,7,1,8,0.02
2013-12-9,54,39,31,51,38,31,99,98,86,30.17,29.96,6,1,7,0.08
2013-12-10,43,37,32,41,31,18,99,81,54,30.19,29.89,23,5,30,0.30
2013-12-11,55,38,28,28,21,17,79,51,32,30.32,30.15,16,4,19,0.00
2013-12-12,41,33,25,21,13,6,61,44,24,30.32,30.19,17,6,24,0.00
2013-12-13,54,37,25,26,16,10,60,44,29,30.25,30.13,8,3,11,0.00
2013-12-18,48,42,36,43,36,31,99,80,68,30.38,30.10,12,4,12,0.00
2013-12-19,36,31,29,33,30,28,99,97,83,30.39,30.07,4,0,4,0.02
2013-12-20,54,40,32,49,39,32,99,97,85,30.07,29.92,4,2,4,0.09
2013-12-21,43,36,31,41,28,18,99,74,54,30.23,29.89,17,7,17,0.28
2013-12-22,55,39,28,26,21,18,77,50,33,30.31,30.15,21,4,21,0.00
2013-12-23,41,32,25,19,11,7,59,44,24,30.32,30.21,11,4,11,0.00
2013-12-24,53,31,24,24,14,9,57,48,29,30.38,30.14,15,6,18,1.19
2013-12-25,39,26,14,19,12,9,90,58,33,30.44,30.25,8,2,8,0.00
2013-12-26,51,35,20,30,21,15,92,60,35,30.29,30.15,17,3,17,0.00
2013-12-27,59,36,22,29,23,20,98,66,27,30.36,30.24,11,2,13,0.00
2013-12-28,62,41,24,40,28,23,99,68,26,30.30,30.07,10,1,11,0.07
2013-12-29,54,45,40,52,42,40,99,91,75,30.07,29.60,19,4,23,0.61
2013-12-30,48,43,36,41,34,28,79,71,64,30.07,29.83,21,6,24,0.00
2013-12-31,50,38,27,31,23,17,92,58,32,30.26,30.03,25,4,33,0.00
2014-1-1,54,37,23,30,25,19,96,65,35,30.29,30.02,12,3,15,0.00
2014-1-2,42,34,26,38,31,22,99,90,67,30.02,29.55,21,2,27,0.09